Weather History for KMDH - May, 2012

Change the Weather History Date:

Monday, May 21, 2012

  Actual Average Record
Temperature  
Mean Temperature 68 °F -  
Max Temperature 75 °F 80 °F 95 °F (1925)
Min Temperature 61 °F 55 °F 36 °F (1954)
Cooling Degree Days 4    
Growing Degree Days 18 (Base 50)    
Moisture  
Dew Point 56 °F    
Average Humidity 71    
Maximum Humidity 100    
Minimum Humidity 41    
Precipitation  
Precipitation 0.01 in - - ()
Sea Level Pressure  
Sea Level Pressure 30.08 in    
Wind  
Wind Speed 7 mph (NNW)    
Max Wind Speed 15 mph    
Max Gust Speed 26 mph    
Visibility 8 miles    
Events Rain    
Averages and records for this station are not official NWS values.
T = Trace of Precipitation, MM = Missing Value Source: NWS Daily Summary

Daily Weather History Graph

Daily Weather History Graph

Search for Another Location

Airport or City:

Trip Planner

Search our weather history database for the weather conditions in past years. The results will help you decide how hot, cold, wet, or windy it might be!

Date:

Astronomy

May. 21, 2012 Rise Set
Actual Time 5:42 AM CDT 8:05 PM CDT
Civil Twilight 5:12 AM CDT 8:35 PM CDT
Nautical Twilight 4:35 AM CDT 9:12 PM CDT
Astronomical Twilight 3:54 AM CDT 9:53 PM CDT
Moon 6:05 AM CDT (5/21) 8:55 PM CDT (5/21)
Length of Visible Light 15h 23m
Length of Day
14h 23m
New Moon, 0% of the Moon is Illuminated
May 21
New Moon
May 28
First Quarter
Jun 4
Full
Jun 11
Last Quarter
Jun 19
New

Hourly Weather History & Observations

Time (CDT) Temp. Dew Point Humidity Pressure Visibility Wind Dir Wind Speed Gust Speed Precip Events Conditions
12:52 AM 64.9 °F 64.0 °F 97% 30.08 in 6.0 mi West 6.9 mph - 0.00 in Rain Light Rain
1:52 AM 64.9 °F 64.0 °F 97% 30.05 in 6.0 mi Calm Calm - 0.01 in   Clear
2:52 AM 64.9 °F 64.0 °F 97% 30.05 in 4.0 mi NNW 6.9 mph - N/A   Clear
3:52 AM 64.9 °F 63.0 °F 93% 30.06 in 6.0 mi West 3.5 mph - N/A   Clear
4:52 AM 64.0 °F 63.0 °F 96% 30.06 in 6.0 mi Calm Calm - N/A   Clear
5:25 AM 62.6 °F 62.6 °F 100% 30.07 in 1.8 mi Calm Calm - N/A   Clear
5:49 AM 62.6 °F 62.6 °F 100% 30.07 in 3.0 mi NW 4.6 mph - N/A   Clear
5:50 AM 63.0 °F 62.1 °F 97% 30.07 in 3.0 mi NW 4.6 mph - N/A   Clear
6:52 AM 64.0 °F 62.1 °F 93% 30.09 in 8.0 mi NNW 10.4 mph - N/A   Scattered Clouds
7:52 AM 64.0 °F 55.9 °F 75% 30.11 in 10.0 mi NNW 11.5 mph - N/A   Mostly Cloudy
8:52 AM 64.9 °F 55.0 °F 70% 30.12 in 10.0 mi North 11.5 mph - N/A   Mostly Cloudy
9:52 AM 66.9 °F 55.0 °F 66% 30.12 in 10.0 mi NNW 10.4 mph - N/A   Clear
10:52 AM 69.1 °F 54.0 °F 58% 30.11 in 10.0 mi NNW 6.9 mph 17.3 mph N/A   Clear
11:52 AM 71.1 °F 54.0 °F 55% 30.11 in 10.0 mi NNW 11.5 mph 16.1 mph N/A   Clear
12:52 PM 73.0 °F 54.0 °F 51% 30.10 in 10.0 mi NNW 13.8 mph 18.4 mph N/A   Clear
1:52 PM 73.9 °F 53.1 °F 48% 30.09 in 10.0 mi NNW 11.5 mph - N/A   Scattered Clouds
2:52 PM 73.9 °F 51.1 °F 45% 30.08 in 10.0 mi North 15.0 mph - N/A   Clear
3:52 PM 75.9 °F 51.1 °F 42% 30.06 in 10.0 mi North 13.8 mph - N/A   Clear
4:52 PM 75.0 °F 50.0 °F 41% 30.04 in 10.0 mi NNW 13.8 mph - N/A   Clear
5:52 PM 73.0 °F 50.0 °F 44% 30.05 in 10.0 mi NNW 15.0 mph 24.2 mph N/A   Partly Cloudy
6:52 PM 70.0 °F 50.0 °F 49% 30.06 in 10.0 mi NNW 13.8 mph 23.0 mph N/A   Clear
7:52 PM 66.0 °F 48.9 °F 54% 30.06 in 10.0 mi North 12.7 mph - N/A   Clear
8:52 PM 64.0 °F 50.0 °F 60% 30.07 in 10.0 mi North 8.1 mph 26.5 mph N/A   Clear
9:52 PM 61.0 °F 51.1 °F 70% 30.08 in 10.0 mi North 4.6 mph - N/A   Clear